Regional Weather Roundup
Issued by NWS Charleston, SC

Home | Current Version | Previous Version | Text Only | Print | Product List | Glossary On
Versions: 1 2 3 4 5 6 7 8 9 10 11 12 13 14 15 16 17 18 19 20 21 22 23 24 25 26 27 28 29 30 31 32 33 34 35 36 37 38 39 40 41 42 43 44 45 46 47 48 49 50
000
ASUS42 KCHS 291227
RWRCHS

REGIONAL WEATHER ROUNDUP
NATIONAL WEATHER SERVICE CHARLESTON SC
800 AM EDT MON MAY 29 2017

NOTE: "FAIR" INDICATES FEW OR NO CLOUDS BELOW 12,000 FEET WITH NO
SIGNIFICANT WEATHER AND/OR OBSTRUCTIONS TO VISIBILITY.

NOT ALL STATIONS ARE QUALITY CONTROLLED. USE DATA WITH CAUTION...
ESPECIALLY DEWPOINT OBSERVATIONS.

SCZ027-030-031-034>040-042>050-291300-
...SOUTHEAST SOUTH CAROLINA...

CITY           SKY/WX    TMP DP  RH WIND       PRES   REMARKS
N CHARLESTON   MOSUNNY   76  67  73 NW9       29.96R
6HR MIN TEMP:  73; 6HR MAX TEMP:  77;

WATERFRONT PRK   N/A     77  70  79 W7        29.94R
JOHNS ISLAND   FAIR      79  70  73 W8        29.97S
PINOPOLIS        N/A     73  72  94 W7        29.89R
MONCKS CORNER  FAIR      75  68  78 CALM      29.96S
SUMMERVILLE    FAIR      75  68  78 W5        29.97S
BEAUFORT MCAS  SUNNY     77  71  82 W9        29.97S
6HR MIN TEMP:  75; 6HR MAX TEMP:  77;

BEAUFORT ARPT  FAIR      77  68  73 W9        29.97S
HILTON HEAD IS SUNNY     77  70  78 W6        29.98S
WALTERBORO     MOSUNNY   75  68  78 W7        29.97F
ALLENDALE      FAIR      75  68  78 CALM      29.96S

...SOUTHERN MIDLANDS AND PEE DEE...

CITY           SKY/WX    TMP DP  RH WIND       PRES   REMARKS
GEORGETOWN     FAIR      75  70  83 W7        29.96S
KINGSTREE      FAIR      73  68  83 W5        29.96S
ORANGEBURG     SUNNY     74  68  81 W5        29.96S
6HR MIN TEMP:  69; 6HR MAX TEMP:  74;

BARNWELL       FAIR      77  70  78 W5        29.97S
AIKEN          FAIR      72  66  83 W9        30.01S
MANNING        FAIR      75  70  83 NW9       29.96F
COLUMBIA       MOSUNNY   72  67  84 S5        29.95S
6HR MIN TEMP:  67; 6HR MAX TEMP:  72;

SUMTER         SUNNY     72  67  85 W6        29.94R
6HR MIN TEMP:  68; 6HR MAX TEMP:  73;

FLORENCE       SUNNY     72  69  90 W7        29.95R
6HR MIN TEMP:  67; 6HR MAX TEMP:  72;

MYRTLE BEACH   SUNNY     75  70  83 W9        29.95R
N MYRTLE BEACH SUNNY     74  70  87 W5        29.94R
6HR MIN TEMP:  71; 6HR MAX TEMP:  74;


$$

GAZ063-065-086>088-099>101-113>116-118-119-134>141-150-291300-
...SOUTHEAST GEORGIA...

CITY           SKY/WX    TMP DP  RH WIND       PRES   REMARKS
SAVANNAH ARPT  PTSUNNY   76  69  79 W8        29.98F
6HR MIN TEMP:  72; 6HR MAX TEMP:  78;

HUNTER AAF     MOSUNNY   77  74  91 W5        29.96S
6HR MIN TEMP:  72; 6HR MAX TEMP:  78;

FORT STEWART   MOSUNNY   77  69  77 W6        29.97S
6HR MIN TEMP:  73; 6HR MAX TEMP:  79;

STATESBORO     MOSUNNY   77  72  84 NW7       29.99R
SYLVANIA       SUNNY     76  71  83 NW6       29.99S
CLAXTON        FAIR      77  77 100 W5        30.00R

...CSRA...CENTRAL AND FAR SOUTHEAST GEORGIA...

CITY           SKY/WX    TMP DP  RH WIND       PRES   REMARKS
THOMSON        SUNNY     73  66  78 N6        30.03S
AUGUSTA-BUSH   SUNNY     76  68  76 NW7       29.96F
6HR MIN TEMP:  70; 6HR MAX TEMP:  76;

AUGUSTA-DANIEL SUNNY     76  64  66 NW9       29.98S
SWAINSBORO     FAIR      73  70  88 W3        30.01R
VIDALIA        MOSUNNY   77  70  78 NW7       30.01R
EASTMAN        FAIR      76  62  62 CALM      30.04R
HAZLEHURST     FAIR      77  74  91 CALM      30.00R
ALMA           MOSUNNY   76  72  87 CALM      30.01R
6HR MIN TEMP:  72; 6HR MAX TEMP:  80;

WAYCROSS       SUNNY     79  79  98 W5        30.01R
JESUP          FAIR      79  70  73 W5        30.01R
BAXLEY         FAIR      77  77 100 W6        30.01R
BRUNSWICK      MOSUNNY   79  75  89 W6        30.01S
SAINT SIMONS   SUNNY     78  74  87 W9        30.00R
6HR MIN TEMP:  76; 6HR MAX TEMP:  80;


$$

SCZ027-028-034-036>038-045-046-048>050-GAZ119-141-291300-
...LAKE AND SUPPLEMENTAL COASTAL OBSERVATIONS...

STATION/POSITION TIME  TEMP    WIND        PRES    WAVE   SWELL
                       AIR SEA DIR/SP/G            HT/PER HT/PER/DIR
                 (UTC) (F)     (DEG/KT/KT) (MB)    (FT/S) (FT/S/D)
WINYAH BAY       1130   76     290/  5     1014.0R
LAKE MURRAY      1220   73     280/  4/  5 1013.5
ACE BASIN NERRS  1130   76     260/  2     1015.0R
FORT PULASKI     1200   77     300/ 11/ 13 1015.5
SAPELO ISLAND    1145   77     270/  6     1016.0R

$$

ANZ835-935-AMZ111-154-330-350-352-354-370-450-454-472-291300-
...C-MAN AND BUOY OBSERVATIONS...

STATION/POSITION TIME  TEMP    WIND        PRES    WAVE   SWELL
                       AIR SEA DIR/SP/G            HT/PER HT/PER/DIR
                 (UTC) (F)     (DEG/KT/KT) (MB)    (FT/S) (FT/S/D)
BUOY 41004       1210   77 76  290/  8/ 10 1014.5
BUOY 41008       1150   78 78  260/ 14/ 16 1015.3R   2/ 4   2/100/ 7
FOLLY BEACH CMAN 1200   77     280/  6/ 10 1015.1R
CAPERS NEARSHORE 1208   81 77  300/ 10/ 14 1014.3R
FRIPP NEARSHORE  1208   77 78  300/ 10/ 14 1014.8R


STATION/POSITION TIME  TEMP    WIND        PRES    WAVE   SWELL
                       AIR SEA DIR/SP/G            HT/PER HT/PER/DIR
                 (UTC) (F)     (DEG/KT/KT) (MB)    (FT/S) (FT/S/D)
5E ST. MARYS GA  1200      79                N/A     2/ 3
FRYING PAN BUOY  1210   76 75  270/  8/ 10 1013.5
BUOY 41025       1150   75 76  260/ 14/ 16 1011.9R   5/ 6   2/110/10
CAPE LOOKOUT NC  1200   75     290/ 11/ 13 1012.6R
BUOY 41002       1150   77 76  230/ 14/ 17 1015.2R   4/ 6   2/120/ 8
BUOY 41010       1210   80 80  230/  4/  6 1017.5
ST AUGUSTINE FL  1200   77 77  290/  5/  7 1017.7R


$$




USA.gov is the U.S. government's official web portal to all federal, state and local government web resources and services.